Weather Roundup
Issued by NWS

Home | Current Version | Previous Version | Text Only | Print | Product List | Glossary On
Versions: 1 2 3 4 5 6 7 8 9 10 11 12 13 14 15 16 17 18 19 20 21 22 23 24 25 26 27 28 29 30 31 32 33 34 35 36 37 38 39 40 41 42 43 44 45 46 47 48 49 50
000
NZUS93 KARX 030510
HRRWXR

CURRENT HOURLY OBSERVATIONS ACROSS
MUCH OF THE UPPER MISSISSIPPI VALLEY
NATIONAL WEATHER SERVICE LA CROSSE WI
1200 AM CDT MON AUG 03 2015


...SOUTHEAST MINNESOTA...


CITY           SKY/WX    TMP DP  RH WIND       PRES   REMARKS
ROCHESTER      CLEAR     63  57  81 NW9       29.87R
ROCHESTER/MAYO FAIR      67  56  69 W12       29.85R
WINONA         CLOUDY    73  59  60 N8        29.82R
AUSTIN         CLEAR     66  55  68 NW8       29.86R
ALBERT LEA     CLEAR     66  55  68 NW5       29.88R
DODGE CENTER   CLEAR     64  54  68 NW8       29.87R
PRESTON        CLEAR     64  57  77 NW10      29.86R
OWATONNA       CLEAR     59  54  82 W3        29.88R
FARIBAULT      CLEAR     61  55  82 W5        29.87R
$$

...ELSEWHERE IN MINNESOTA...


CITY           SKY/WX    TMP DP  RH WIND       PRES   REMARKS
MINNEAPOLIS    CLEAR     67  51  56 NW8       29.85R
INTNL FALLS    MOCLDY    58  49  72 W6        29.75S
DULUTH         MOCLDY    63  48  58 W6        29.77R
RED WING       CLEAR     63  55  77 CALM      29.83R
REDWOOD FALLS  CLEAR     67  55  65 NW9       29.89R
MANKATO        CLEAR     64  54  68 CALM      29.88R
WORTHINGTON    CLEAR     61  54  77 NW5       29.93R
FAIRMONT       CLEAR     63  54  72 NW7       29.90R
$$

...SOUTHWEST WISCONSIN...


CITY           SKY/WX    TMP DP  RH WIND       PRES   REMARKS
LA CROSSE      MOCLDY    74  59  59 NW15      29.79R
PRAIRIE DU CHI CLEAR     73  58  59 NW8       29.77R
BOSCOBEL       PTCLDY    70  64  81 W3        29.77R
LONE ROCK      CLEAR     74  60  61 NW7       29.76R
PLATTEVILLE    MOCLDY    73  64  73 NW6       29.78R
FORT MC COY    MOCLDY    72  54  53 NW10      29.80R
CAMP DOUGLAS   PTCLDY    69  62  78 NW8       29.77R
VIROQUA        FAIR      68  60  75 NW7       29.80R
WIS DELLS      CLEAR     72  56  57 NW7       29.75R
$$

...ELSEWHERE IN WISCONSIN...


CITY           SKY/WX    TMP DP  RH WIND       PRES   REMARKS
MILWAUKEE      PTCLDY    69  59  70 NW6       29.70R
MADISON        CLEAR     72  59  63 NW6       29.74R
GREEN BAY      MOCLDY    64  62  93 W7        29.71R
EAU CLAIRE     CLEAR     64  48  56 NW3       29.80R
BLACK RVR FLS  CLOUDY    70  53  55 NW5       29.79R
MEDFORD        PTCLDY    59  52  77 NW5       29.79R
WAUSAU         MOCLDY    66  57  72 NW7       29.75R
WIS RAPIDS     CLEAR     65  56  72 CALM      29.78R
MARSHFIELD     PTCLDY    63  56  78 NW6       29.78R
RICE LAKE      CLEAR     57  49  74 CALM      29.83R
$$

...NORTHEAST IOWA...


CITY           SKY/WX    TMP DP  RH WIND       PRES   REMARKS
DECORAH        PTCLDY    70  59  68 NW9G16    29.82R
MASON CITY     CLEAR     64  58  80 NW8       29.89R
CHARLES CITY   CLEAR     66  63  88 NW9       29.86R
OELWEIN          N/A    N/A N/A N/A MISG      29.83R
$$

...ELSEWHERE IN IOWA...


CITY           SKY/WX    TMP DP  RH WIND       PRES   REMARKS
DES MOINES     PTCLDY    74  63  68 N8        29.85R
IOWA CITY      CLEAR     72  62  71 W12       29.82R
FORT DODGE     CLEAR     66  59  77 CALM      29.90R
$$

...NORTHERN ILLINOIS...


CITY           SKY/WX    TMP DP  RH WIND       PRES   REMARKS
CHICAGO-OHARE  CLOUDY    68  67  96 CALM      29.74R
CHICAGO-MIDWAY TSTM      70  64  81 W6        29.72F
MOLINE         CLEAR     76  62  62 W12       29.77R
ROCKFORD       MOCLDY    77  63  61 N7        29.74R
PEORIA         PTCLDY    81  72  74 W12       29.76R
$$

NOTE: "FAIR" INDICATES FEW OR NO CLOUDS BELOW 12,000 FEET WITH NO
SIGNIFICANT WEATHER AND/OR OBSTRUCTIONS TO VISIBILITY. WIND
SPEEDS ARE IN MILES-PER-HOUR.



USA.gov is the U.S. government's official web portal to all federal, state and local government web resources and services.